Weather History for Martinsville, VA

Change the Weather History Date:

Friday, February 1, 2013

  Actual Average (KGSO) Record (KGSO)
Temperature  
Mean Temperature 26 °F 40 °F  
Max Temperature 35 °F 50 °F 73 °F (1967)
Min Temperature 17 °F 30 °F -4 °F (1936)
Degree Days  
Heating Degree Days 39 25  
Month to date heating degree days 25  
Since 1 July heating degree days 2248  
Cooling Degree Days 0 0  
Month to date cooling degree days 0  
Year to date cooling degree days 0  
Moisture  
Dew Point 8 °F    
Average Humidity 42    
Maximum Humidity 80    
Minimum Humidity 22    
Precipitation  
Precipitation 0.00 in 0.10 in 1.11 in (1985)
Month to date precipitation 0.10  
Year to date precipitation 3.16  
Snow  
Snow 0.00 in 0.10 in 2.00 in (1972)
Month to date snowfall 0.1  
Since 1 July snowfall 4.4  
Snow Depth -    
Sea Level Pressure  
Sea Level Pressure 30.16 in    
Wind  
Wind Speed 7 mph (WNW)    
Max Wind Speed 20 mph    
Max Gust Speed 30 mph    
Visibility 10 miles    
Events Snow    
T = Trace of Precipitation, MM = Missing Value Source: NWS Daily Summary

Daily Weather History Graph

Daily Weather History Graph

Search for Another Location

Airport:

Trip Planner

Search our weather history database for the weather conditions in past years. The results will help you decide how hot, cold, wet, or windy it might be!

Date:

Astronomy

Feb. 01, 2013 Rise Set
Actual Time 7:21 AM EST 5:46 PM EST
Civil Twilight 6:54 AM EST 6:13 PM EST
Nautical Twilight 6:23 AM EST 6:44 PM EST
Astronomical Twilight 5:53 AM EST 7:14 PM EST
Moon 11:39 PM EST (2/1) 10:04 AM EST (2/1)
Length of Visible Light 11h 18m
Length of Day
10h 24m
Waning Gibbous, 70% of the Moon is Illuminated
Feb 1
Waning Gibbous
Feb 3
Last Quarter
Feb 10
New
Feb 17
First Quarter
Feb 25
Full

Hourly Weather History & Observations

Time (EST) Temp. Windchill Dew Point Humidity Pressure Visibility Wind Dir Wind Speed Gust Speed Precip Events Conditions
12:15 AM 28.4 °F - 21.2 °F 74% 29.93 in 10.0 mi Calm Calm - N/A   Clear
12:35 AM 26.6 °F 22.6 °F 21.2 °F 80% 29.95 in 10.0 mi WNW 3.5 mph - N/A   Clear
1:15 AM 32.0 °F - 21.2 °F 64% 29.91 in 10.0 mi Calm Calm - N/A   Clear
1:35 AM 33.8 °F 28.6 °F 21.2 °F 60% 29.90 in 10.0 mi South 5.8 mph - N/A   Clear
1:55 AM 35.6 °F 30.7 °F 19.4 °F 52% 29.88 in 10.0 mi SSW 5.8 mph - N/A   Clear
2:15 AM 35.6 °F 29.2 °F 21.2 °F 56% 29.87 in 10.0 mi South 8.1 mph - N/A   Scattered Clouds
2:35 AM 35.6 °F 30.7 °F 21.2 °F 56% 29.85 in 10.0 mi SSW 5.8 mph - N/A   Scattered Clouds
2:55 AM 35.6 °F 31.7 °F 21.2 °F 56% 29.86 in 10.0 mi SW 4.6 mph - N/A   Mostly Cloudy
3:15 AM 35.6 °F - 21.2 °F 56% 29.86 in 10.0 mi Calm Calm - N/A   Overcast
3:35 AM 35.6 °F - 21.2 °F 56% 29.85 in 10.0 mi Calm Calm - N/A   Mostly Cloudy
3:55 AM 35.6 °F 32.8 °F 21.2 °F 56% 29.85 in 10.0 mi WSW 3.5 mph - N/A   Mostly Cloudy
4:15 AM 35.6 °F 31.7 °F 21.2 °F 56% 29.85 in 10.0 mi WSW 4.6 mph - N/A   Scattered Clouds
4:35 AM 35.6 °F 31.7 °F 21.2 °F 56% 29.85 in 10.0 mi WSW 4.6 mph - N/A   Clear
4:55 AM 35.6 °F 30.7 °F 23.0 °F 60% 29.86 in 10.0 mi WSW 5.8 mph - N/A   Scattered Clouds
5:15 AM 35.6 °F 26.2 °F 26.6 °F 70% 29.92 in 2.5 mi NW 15.0 mph - N/A Snow Snow
5:35 AM 35.6 °F 26.2 °F 28.4 °F 75% 29.93 in 4.0 mi NW 15.0 mph 18.4 mph N/A Snow Light Snow
5:55 AM 35.6 °F 26.2 °F 21.2 °F 56% 29.95 in 10.0 mi NW 15.0 mph 26.5 mph N/A   Overcast
6:15 AM 33.8 °F 25.3 °F 17.6 °F 52% 29.99 in 10.0 mi WNW 11.5 mph 26.5 mph N/A   Scattered Clouds
6:35 AM 32.0 °F 20.5 °F 14.0 °F 48% 30.02 in 10.0 mi WNW 18.4 mph 29.9 mph N/A   Clear
6:55 AM 32.0 °F 20.1 °F 8.6 °F 38% 30.04 in 10.0 mi WNW 19.6 mph 29.9 mph N/A   Scattered Clouds
7:15 AM 30.2 °F 20.2 °F 8.6 °F 40% 30.06 in 10.0 mi WNW 12.7 mph 25.3 mph N/A   Scattered Clouds
7:35 AM 28.4 °F 16.2 °F 5.0 °F 37% 30.09 in 10.0 mi WNW 17.3 mph 27.6 mph N/A   Scattered Clouds
7:55 AM 28.4 °F 18.5 °F 8.6 °F 43% 30.11 in 10.0 mi NW 11.5 mph 24.2 mph N/A   Scattered Clouds
8:15 AM 28.4 °F 15.8 °F 8.6 °F 43% 30.13 in 10.0 mi NW 18.4 mph 23.0 mph N/A   Scattered Clouds
8:35 AM 26.6 °F 16.2 °F 8.6 °F 47% 30.15 in 10.0 mi NNW 11.5 mph 24.2 mph N/A   Scattered Clouds
9:15 AM 28.4 °F 16.2 °F 3.2 °F 34% 30.19 in 10.0 mi WNW 17.3 mph 25.3 mph N/A   Clear
9:35 AM 28.4 °F 17.0 °F 3.2 °F 34% 30.19 in 10.0 mi NW 15.0 mph 24.2 mph N/A   Clear
9:55 AM 28.4 °F 16.2 °F 1.4 °F 31% 30.20 in 10.0 mi NNW 17.3 mph 25.3 mph N/A   Clear
10:15 AM 28.4 °F 17.0 °F 1.4 °F 31% 30.21 in 10.0 mi North 15.0 mph 24.2 mph N/A   Clear
10:35 AM 28.4 °F 15.4 °F 1.4 °F 31% 30.23 in 10.0 mi NW 19.6 mph 23.0 mph N/A   Clear
10:55 AM 28.4 °F 16.6 °F 1.4 °F 31% 30.24 in 10.0 mi NW 16.1 mph 25.3 mph N/A   Clear
11:15 AM 30.2 °F 19.8 °F 1.4 °F 29% 30.24 in 10.0 mi NW 13.8 mph 18.4 mph N/A   Clear
11:35 AM 30.2 °F 19.8 °F 1.4 °F 29% 30.25 in 10.0 mi NW 13.8 mph 19.6 mph N/A   Clear
11:55 AM 30.2 °F 21.3 °F 1.4 °F 29% 30.25 in 10.0 mi WNW 10.4 mph 17.3 mph N/A   Clear
12:15 PM 32.0 °F 20.8 °F 1.4 °F 27% 30.25 in 10.0 mi NW 17.3 mph - N/A   Clear
12:35 PM 30.2 °F 20.2 °F 1.4 °F 29% 30.24 in 10.0 mi NNW 12.7 mph 20.7 mph N/A   Clear
12:55 PM 32.0 °F 22.5 °F 1.4 °F 27% 30.24 in 10.0 mi NNW 12.7 mph 17.3 mph N/A   Clear
1:15 PM 33.8 °F 28.6 °F 1.4 °F 25% 30.23 in 10.0 mi NW 5.8 mph 17.3 mph N/A   Clear
1:35 PM 33.8 °F 27.0 °F 3.2 °F 28% 30.23 in 10.0 mi NW 8.1 mph - N/A   Clear
1:55 PM 33.8 °F 24.3 °F 1.4 °F 25% 30.23 in 10.0 mi NW 13.8 mph 18.4 mph N/A   Clear
2:15 PM 33.8 °F 24.3 °F -0.4 °F 23% 30.23 in 10.0 mi NNW 13.8 mph 19.6 mph N/A   Clear
2:35 PM 35.6 °F 27.5 °F 1.4 °F 24% 30.24 in 10.0 mi WNW 11.5 mph 19.6 mph N/A   Clear
2:55 PM 35.6 °F 27.5 °F 1.4 °F 24% 30.24 in 10.0 mi WNW 11.5 mph - N/A   Clear
3:15 PM 35.6 °F 29.2 °F 1.4 °F 24% 30.25 in 10.0 mi NNW 8.1 mph - N/A   Clear
3:35 PM 35.6 °F 27.1 °F -0.4 °F 22% 30.25 in 10.0 mi NW 12.7 mph 18.4 mph N/A   Clear
3:55 PM 35.6 °F 26.6 °F -0.4 °F 22% 30.25 in 10.0 mi NW 13.8 mph 24.2 mph N/A   Clear
4:15 PM 33.8 °F 24.8 °F -0.4 °F 23% 30.26 in 10.0 mi NW 12.7 mph 19.6 mph N/A   Clear
4:35 PM 33.8 °F 26.4 °F -0.4 °F 23% 30.26 in 10.0 mi WNW 9.2 mph - N/A   Clear
4:55 PM 33.8 °F 24.3 °F -0.4 °F 23% 30.27 in 10.0 mi NW 13.8 mph - N/A   Clear
5:15 PM 32.0 °F 23.0 °F -0.4 °F 25% 30.28 in 10.0 mi NW 11.5 mph - N/A   Clear
5:35 PM 30.2 °F 21.9 °F -0.4 °F 27% 30.28 in 10.0 mi NW 9.2 mph - N/A   Clear
5:55 PM 30.2 °F - -0.4 °F 27% 30.30 in 10.0 mi Calm Calm - N/A   Clear
6:15 PM 28.4 °F - 1.4 °F 31% 30.30 in 10.0 mi Calm Calm - N/A   Clear
6:35 PM 28.4 °F 23.3 °F 1.4 °F 31% 30.31 in 10.0 mi WNW 4.6 mph - N/A   Clear
6:55 PM 28.4 °F 24.6 °F 1.4 °F 31% 30.31 in 10.0 mi West 3.5 mph - N/A   Clear
7:15 PM 28.4 °F - 1.4 °F 31% 30.32 in 10.0 mi Calm Calm - N/A   Clear
7:35 PM 28.4 °F 24.6 °F 1.4 °F 31% 30.32 in 10.0 mi West 3.5 mph - N/A   Clear
7:55 PM 26.6 °F - 1.4 °F 34% 30.33 in 10.0 mi Calm Calm - N/A   Clear
8:15 PM 26.6 °F 22.6 °F 3.2 °F 37% 30.34 in 10.0 mi West 3.5 mph - N/A   Clear
8:35 PM 26.6 °F - 1.4 °F 34% 30.35 in 10.0 mi Calm Calm - N/A   Clear
8:55 PM 24.8 °F - 3.2 °F 40% 30.36 in 10.0 mi Calm Calm - N/A   Clear
9:15 PM 24.8 °F - 3.2 °F 40% 30.37 in 10.0 mi Calm Calm - N/A   Clear
9:35 PM 21.2 °F - 6.8 °F 54% 30.37 in 10.0 mi Calm Calm - N/A   Clear
9:55 PM 23.0 °F - 6.8 °F 50% 30.37 in 10.0 mi Calm Calm - N/A   Clear
10:15 PM 21.2 °F - 8.6 °F 58% 30.37 in 10.0 mi Calm Calm - N/A   Clear
10:35 PM 21.2 °F - 10.4 °F 63% 30.37 in 10.0 mi Calm Calm - N/A   Clear
10:55 PM 19.4 °F - 10.4 °F 68% 30.37 in 10.0 mi Calm Calm - N/A   Clear
11:15 PM 19.4 °F - 10.4 °F 68% 30.37 in 10.0 mi Calm Calm - N/A   Clear
11:35 PM 17.6 °F - 12.2 °F 79% 30.36 in 10.0 mi Calm Calm - N/A   Clear
11:55 PM 19.4 °F - 10.4 °F 68% 30.36 in 10.0 mi Calm Calm - N/A   Clear